User: anonymous   Login
Location: Unspecified
(0.0000°N, 0.0000°E)
Time: 21:34:41
(UTC+00:00)
Language:

PAYLOAD G - Orbit

View from above orbital plane
View from above orbital plane
View from above satellite
View from above satellite

Ground track
Ground track

The orbit data is extracted from the following two-line orbital elements,

1 27846U 03031G   24107.95079701  .00000809  00000-0  37831-3 0  9998
2 27846  98.6889 115.1913 0008254 301.6382  58.3991 14.23017865 79110
Epoch (UTC): 16 April 2024 22:49:08
Eccentricity: 0.0008254
inclination: 98.6889°
perigee height: 809 km
apogee height: 821 km
right ascension of ascending node: 115.1913°
argument of perigee: 301.6382°
revolutions per day: 14.23017865
mean anomaly at epoch: 58.3991°
orbit number at epoch: 7911

The dashed part of the orbit path shows where the satellite is in the earth's shadow,  

DLR